Wind_Speed
37 37 38 38 39 39 39 40 40 39 38 39 39 38 39 39 39 39 40 39 38 38 37 37 38 37 37 37 36 36 36 36 36 35 35 34 34 33
37 37 37 37 38 38 38 39 39 39 38 38 38 38 38 38 39 39 39 38 37 37 37 37 36 36 36 36 36 35 35 35 35 35 35 34 33 33
37 36 36 37 37 36 37 37 37 38 38 37 37 37 37 38 38 37 37 37 37 37 36 36 35 35 36 35 35 35 35 35 35 35 34 34 34 33
34 35 35 35 35 35 35 35 36 37 37 36 37 37 37 38 37 37 37 38 37 36 36 36 35 35 35 36 36 36 36 35 35 35 34 34 34 34
33 33 34 34 33 34 35 35 35 36 36 36 36 37 37 37 37 37 37 38 37 36 36 36 36 36 35 35 35 35 35 35 35 34 34 34 34 33
32 32 33 33 32 33 34 34 35 35 35 35 35 36 36 36 36 37 37 37 37 37 36 35 36 35 35 35 34 34 35 35 35 34 34 34 33 33
30 31 31 31 32 32 33 33 33 34 34 34 35 35 35 35 36 36 36 36 36 37 36 35 35 35 34 34 34 34 34 35 34 34 33 33 33 33
29 30 30 30 31 32 32 32 33 33 33 33 34 34 34 35 35 35 35 35 35 35 35 35 35 34 35 35 35 34 34 34 33 33 33 33 33 32
29 30 30 30 31 32 32 31 32 32 33 33 34 34 34 34 34 33 34 34 34 34 34 34 34 34 35 34 33 32 32 32 33 33 32 32 32 32
29 29 29 30 30 31 31 31 31 32 33 33 33 33 33 33 32 32 32 32 33 33 34 33 33 33 33 33 32 32 33 33 33 32 32 32 31 30
28 28 28 28 28 29 29 30 30 31 32 32 32 32 32 32 32 31 31 31 31 31 32 32 32 31 31 32 31 31 32 32 32 32 32 31 30 30
26 27 27 27 28 28 28 28 29 29 30 30 30 30 30 30 31 31 30 31 31 30 30 31 31 31 30 30 30 30 30 30 30 31 31 30 31 30
25 26 26 27 27 27 27 27 27 27 27 27 27 27 27 28 29 30 30 30 29 29 29 29 29 29 30 29 29 29 29 28 29 30 30 29 29 29
25 24 25 25 24 24 24 24 25 25 25 25 25 25 25 25 26 26 27 27 26 26 27 27 27 27 28 28 28 28 28 28 28 29 29 28 27 26
25 24 24 24 23 22 22 22 23 24 23 23 23 23 23 23 23 23 23 23 23 24 25 26 26 26 26 27 26 26 27 27 27 26 26 25 25 24
23 22 22 22 22 22 22 22 22 22 22 22 22 22 22 22 22 21 20 21 22 22 23 24 25 24 24 24 24 23 24 25 24 23 24 24 24 24
21 21 20 20 21 21 21 22 22 21 21 21 21 21 21 21 20 20 20 20 20 20 21 22 22 22 22 22 22 22 22 22 21 21 22 22 23 23
21 21 20 20 21 22 22 21 21 21 20 20 20 20 20 20 19 19 20 20 20 19 20 21 21 21 21 21 20 20 20 20 20 20 20 20 21 21
20 20 20 20 21 21 21 21 22 21 20 20 19 19 19 19 19 19 20 19 19 19 19 19 19 20 20 20 19 19 19 18 19 19 19 18 18 18
20 20 20 20 20 20 20 21 21 21 20 19 19 18 18 18 19 19 19 19 18 17 17 17 17 17 18 19 18 18 18 17 17 17 16 16 16 15
20 20 20 19 19 19 20 20 20 20 20 19 18 18 17 17 17 18 18 18 17 17 17 16 16 17 17 16 17 17 17 16 16 15 15 14 14 13
19 19 19 19 20 20 20 20 19 19 19 19 18 17 17 17 17 17 17 17 17 16 16 15 15 15 15 15 15 15 15 14 14 14 13 13 12 11
19 19 20 20 21 21 20 19 18 18 18 18 18 17 17 17 16 16 16 16 16 15 15 15 15 14 14 14 13 13 13 12 12 12 12 11 10 10
Wind_Direction
267 268 267 267 267 266 265 266 267 268 269 270 270 270 269 270 269 267 265 264 264 264 266 267 267 268 269 269 267 268 269 270 272 272 273 273 274 274
267 268 268 268 268 267 266 266 267 268 269 270 271 271 270 270 269 267 264 262 263 265 265 266 266 267 267 267 266 267 269 270 271 272 273 273 273 274
267 268 268 267 268 267 268 266 267 269 270 271 272 272 271 269 268 265 264 262 263 264 264 265 266 266 265 265 265 266 268 269 270 271 272 272 272 272
268 267 266 267 267 267 268 268 269 270 269 271 272 272 271 268 267 265 264 264 264 264 265 265 266 266 264 264 264 265 267 268 269 270 271 271 272 272
267 266 265 266 267 268 269 269 269 270 270 271 271 272 270 268 267 266 266 265 265 265 265 266 266 265 265 264 265 265 266 268 269 270 272 273 272 272
266 264 265 265 266 268 268 269 270 271 271 270 271 271 270 268 268 267 266 265 266 266 266 265 265 265 265 264 264 265 266 268 268 270 272 273 273 273
267 265 265 266 265 267 268 269 270 272 272 271 271 270 269 268 267 267 267 267 266 265 264 264 264 265 265 265 265 265 265 266 268 269 269 272 273 272
269 267 267 268 266 267 269 270 270 271 271 271 270 269 269 268 268 268 268 268 266 265 264 264 264 264 264 265 265 266 266 266 267 269 272 272 272 270
269 268 269 268 267 266 269 271 270 271 272 272 270 269 268 269 269 269 268 268 266 264 262 263 263 263 264 265 265 264 263 265 266 270 272 272 270 269
270 269 269 268 269 268 268 270 271 272 272 271 271 269 268 269 269 268 268 267 265 263 260 260 262 263 262 264 264 265 265 266 267 270 272 272 270 268
272 269 268 267 268 268 269 270 271 273 272 271 270 268 268 268 268 267 267 267 265 262 260 260 260 260 261 263 265 266 267 267 268 270 271 270 267 266
272 271 270 268 269 271 269 271 272 273 272 270 269 269 268 268 268 268 267 267 265 262 261 260 261 261 260 261 263 265 267 267 268 269 270 269 268 266
272 272 270 270 272 272 270 271 272 271 271 270 269 270 270 269 268 268 267 266 264 262 260 259 261 263 262 261 261 265 267 268 268 269 270 270 270 269
271 271 271 271 272 273 272 272 270 271 272 271 270 271 270 269 270 271 269 266 263 261 261 261 262 263 264 263 264 266 268 270 271 271 271 270 269 268
271 273 273 271 271 273 273 271 271 272 271 269 269 268 268 268 270 270 268 267 265 263 261 263 263 264 266 266 266 267 268 270 272 271 269 268 266 264
270 273 273 270 269 270 271 272 273 272 269 267 267 267 267 267 266 266 266 267 265 263 264 263 263 264 266 264 266 269 271 272 271 269 267 266 265 264
268 271 272 271 269 270 272 272 272 271 268 267 267 267 266 264 262 261 264 266 266 265 265 265 265 265 266 266 267 269 270 270 269 267 265 265 265 264
268 269 272 272 270 271 272 271 270 269 267 267 267 266 264 262 262 263 266 267 267 268 268 267 266 265 265 265 265 267 268 267 267 268 268 265 263 262
267 268 270 270 271 272 272 271 270 268 266 266 266 265 262 261 263 265 267 267 267 267 267 266 266 267 267 263 262 263 264 265 267 267 266 264 262 259
267 267 267 267 271 273 273 272 270 266 264 264 264 263 263 263 264 264 265 266 266 265 267 267 268 269 270 264 260 260 262 264 263 262 259 258 257 257
268 268 267 266 269 273 275 274 270 265 262 260 261 262 264 265 264 262 263 264 263 265 268 269 270 268 265 262 261 261 261 262 259 255 252 250 250 251
268 269 268 269 271 273 275 276 271 266 261 259 260 262 264 265 264 262 262 260 261 265 267 268 271 267 262 259 258 260 259 256 254 253 250 248 245 246
271 272 271 271 273 276 276 274 270 265 262 258 259 261 263 263 262 260 257 257 259 261 264 268 270 268 264 257 255 253 249 247 246 244 244 246 248 248
Height
5615 5615 5616 5617 5617 5618 5619 5620 5621 5622 5622 5621 5620 5618 5618 5618 5618 5619 5619 5620 5621 5622 5622 5622 5622 5623 5623 5623 5623 5623 5623 5623 5623 5622 5623 5622 5622 5622
5606 5606 5606 5607 5607 5607 5608 5609 5610 5611 5611 5611 5609 5608 5608 5608 5608 5608 5608 5609 5610 5611 5611 5611 5611 5612 5613 5613 5613 5613 5613 5613 5613 5613 5613 5613 5613 5613
5596 5596 5596 5597 5597 5597 5597 5598 5599 5599 5600 5600 5598 5598 5597 5597 5597 5597 5598 5599 5600 5600 5601 5601 5601 5602 5602 5603 5603 5603 5603 5604 5604 5604 5604 5604 5604 5603
5586 5586 5587 5587 5587 5588 5588 5588 5588 5588 5589 5589 5588 5588 5587 5587 5587 5587 5588 5589 5589 5590 5590 5590 5590 5591 5591 5592 5592 5593 5593 5594 5594 5594 5594 5595 5594 5594
5577 5577 5577 5577 5578 5578 5578 5578 5578 5578 5579 5579 5579 5577 5577 5577 5577 5577 5578 5578 5579 5579 5579 5579 5579 5580 5580 5581 5581 5582 5583 5583 5584 5584 5584 5584 5584 5584
5568 5568 5568 5569 5569 5569 5569 5569 5568 5568 5568 5569 5569 5568 5567 5567 5567 5568 5568 5568 5568 5568 5569 5569 5569 5569 5570 5570 5571 5572 5572 5573 5574 5574 5574 5574 5574 5574
5559 5559 5560 5560 5560 5560 5560 5559 5559 5559 5559 5559 5558 5558 5557 5557 5557 5557 5557 5558 5558 5558 5558 5558 5559 5559 5559 5560 5560 5561 5563 5563 5564 5564 5564 5564 5564 5564
5551 5551 5551 5551 5551 5551 5550 5550 5550 5549 5549 5549 5549 5548 5548 5547 5546 5546 5547 5547 5548 5548 5548 5548 5548 5549 5549 5550 5551 5551 5553 5553 5554 5554 5554 5554 5554 5554
5543 5543 5543 5542 5542 5542 5541 5540 5540 5539 5540 5539 5539 5538 5538 5537 5537 5537 5537 5537 5538 5537 5538 5539 5538 5539 5540 5540 5541 5542 5543 5543 5544 5545 5545 5545 5545 5545
5534 5534 5534 5533 5533 5533 5532 5531 5531 5530 5530 5529 5529 5529 5528 5527 5527 5527 5527 5527 5528 5527 5528 5530 5530 5530 5531 5531 5532 5532 5533 5534 5534 5535 5535 5536 5536 5536
5526 5525 5525 5525 5524 5524 5523 5523 5522 5521 5520 5519 5519 5518 5518 5517 5517 5517 5518 5518 5519 5519 5519 5521 5521 5522 5522 5523 5522 5522 5522 5523 5524 5525 5525 5525 5526 5526
5517 5517 5516 5516 5515 5514 5514 5514 5513 5512 5511 5510 5509 5509 5508 5508 5507 5508 5509 5509 5510 5511 5511 5512 5512 5513 5515 5514 5513 5513 5513 5514 5515 5516 5516 5515 5515 5516
5509 5508 5508 5507 5507 5506 5505 5505 5504 5503 5502 5502 5501 5501 5500 5499 5499 5499 5499 5500 5501 5502 5503 5503 5504 5504 5505 5506 5506 5505 5505 5506 5506 5506 5506 5505 5505 5506
5501 5501 5500 5499 5498 5498 5497 5497 5496 5495 5494 5494 5494 5493 5492 5491 5491 5491 5491 5491 5492 5493 5493 5494 5495 5495 5496 5497 5498 5498 5497 5497 5497 5497 5496 5496 5496 5497
5493 5493 5492 5491 5491 5490 5490 5489 5488 5487 5487 5486 5486 5486 5485 5485 5484 5484 5484 5483 5483 5484 5485 5486 5486 5487 5488 5489 5490 5490 5490 5489 5488 5488 5488 5488 5488 5489
5485 5485 5485 5484 5484 5484 5483 5482 5481 5480 5479 5479 5479 5479 5478 5478 5478 5478 5478 5477 5477 5478 5478 5478 5479 5479 5480 5481 5481 5482 5481 5481 5481 5480 5481 5481 5481 5481
5478 5478 5478 5477 5477 5476 5476 5475 5474 5473 5472 5472 5472 5472 5471 5471 5471 5471 5471 5471 5471 5472 5472 5472 5472 5472 5473 5473 5474 5474 5474 5474 5473 5473 5473 5474 5474 5474
5472 5472 5471 5471 5470 5470 5469 5468 5467 5466 5466 5466 5465 5465 5465 5465 5465 5465 5465 5465 5465 5466 5466 5465 5465 5466 5466 5467 5467 5467 5467 5467 5467 5467 5466 5467 5467 5468
5465 5465 5465 5464 5464 5463 5462 5461 5460 5460 5460 5460 5459 5459 5459 5459 5459 5460 5459 5459 5459 5460 5459 5459 5459 5459 5460 5461 5461 5461 5461 5461 5461 5461 5460 5460 5461 5461
5459 5459 5458 5457 5457 5456 5455 5454 5453 5453 5453 5453 5453 5453 5453 5453 5453 5453 5453 5454 5454 5454 5454 5454 5454 5454 5454 5455 5455 5455 5455 5455 5454 5455 5455 5455 5456 5456
5453 5452 5451 5451 5450 5449 5448 5447 5447 5446 5446 5446 5447 5447 5447 5447 5447 5447 5448 5448 5449 5449 5449 5449 5448 5448 5448 5449 5450 5450 5450 5449 5449 5449 5450 5451 5452 5452
5447 5446 5445 5445 5444 5443 5442 5441 5440 5440 5440 5440 5441 5441 5441 5442 5442 5442 5443 5443 5444 5444 5444 5444 5443 5443 5443 5444 5444 5445 5445 5446 5445 5445 5446 5447 5448 5449
5441 5440 5439 5439 5438 5437 5436 5435 5434 5434 5434 5434 5435 5435 5436 5436 5437 5437 5438 5438 5439 5439 5439 5439 5439 5439 5439 5439 5440 5441 5441 5442 5442 5443 5443 5444 5444 5445